EW3286 Weather Reports


Display with metric or nautical units.
time (UTC)temp
F
wind
direction
speed
MPH
gust
MPH
rain 1hr
in
rain 24hr
in
rain mn
in
humidity
%
barometer
mb
20260903143102 79 59 0.0 0.0 0.00 0.00 0.00 76 1006.0
20260903141552 78 34 0.0 0.0 0.00 0.00 0.00 78 1006.1
20260903140047 77 63 0.0 0.0 0.00 0.00 0.00 79 1006.4
20260903134551 76 60 0.0 0.0 0.00 0.00 0.00 82 1006.5
20260903133039 74 42 0.0 0.0 0.00 0.00 0.00 84 1006.6
20260903131535 73 45 0.0 0.0 0.00 0.00 0.00 85 1006.5
20260903130030 72 69 0.0 0.0 0.00 0.00 0.00 85 1006.8
20260903124526 71 69 0.0 0.0 0.00 0.00 0.00 87 1006.5
20260903123025 70 80 0.0 0.0 0.00 0.00 0.00 87 1006.4
20260903121526 69 45 0.0 0.0 0.00 0.00 0.00 88 1006.7
20260903120019 69 57 0.0 0.0 0.00 0.00 0.00 87 1006.8
20260903114521 69 51 0.0 0.0 0.00 0.00 0.00 86 1006.7
20260903113017 69 42 0.0 0.0 0.00 0.00 0.00 85 1006.6
20260903111517 69 74 0.0 0.0 0.00 0.00 0.00 85 1006.7
20260903110015 69 69 0.0 0.0 0.00 0.00 0.00 85 1006.6
20260903104514 69 57 0.0 0.0 0.00 0.00 0.00 84 1006.6
20260903103013 70 53 0.0 0.0 0.00 0.00 0.00 84 1006.7
20260903101510 70 60 0.0 0.0 0.00 0.00 0.00 83 1006.7
20260903100009 72 68 0.0 0.0 0.00 0.00 0.00 81 1006.6
20260903094507 74 360 0.0 0.0 0.00 0.00 0.00 76 1006.4
20260903093015 76 136 0.0 0.0 0.00 0.00 0.00 72 1006.2
20260903091506 76 360 0.0 0.0 0.00 0.00 0.00 71 1006.2
20260903090002 75 165 0.0 0.0 0.00 0.00 0.00 72 1005.9
20260903084601 74 159 0.0 0.0 0.00 0.00 0.00 72 1005.6
20260903083058 73 88 0.0 0.0 0.00 0.00 0.00 79 1006.4
20260903081557 75 86 0.0 0.0 0.00 0.00 0.00 79 1007.0
20260903080057 73 160 0.0 0.0 0.00 0.00 0.00 77 1007.1
20260903074553 72 110 0.0 0.0 0.00 0.00 0.00 77 1007.2
20260903073100 71 80 0.0 0.0 0.00 0.00 0.00 75 1007.1
20260903071549 72 161 0.0 0.0 0.00 0.00 0.00 75 1008.3
20260903070047 75 139 0.0 0.0 0.00 0.00 0.00 71 1008.5
20260903064544 74 62 0.0 0.0 0.00 0.00 0.00 74 1008.0
20260903063040 74 107 0.0 0.0 0.00 0.00 0.00 92 1008.1
20260903061536 72 84 0.0 0.0 0.00 0.00 0.00 94 1007.9
20260903060038 72 57 0.0 0.0 0.00 0.00 0.00 94 1007.2
20260903054533 72 55 0.0 0.0 0.00 0.00 0.00 94 1007.2
20260903053033 72 56 0.0 0.0 0.00 0.00 0.00 93 1007.3
20260903051530 72 56 0.0 0.0 0.00 0.00 0.00 93 1007.3
20260903050028 72 56 0.0 0.0 0.00 0.00 0.00 92 1007.6
20260903044526 72 56 0.0 0.0 0.00 0.00 0.00 92 1007.5
20260903043025 72 56 0.0 0.0 0.00 0.00 0.00 92 1007.5
20260903041525 73 56 0.0 0.0 0.00 0.00 0.00 91 1007.6
20260903040025 73 56 0.0 0.0 0.00 0.00 0.00 91 1007.7
20260903034523 73 56 0.0 0.0 0.00 0.00 0.00 90 1007.7
20260903033023 74 56 0.0 0.0 0.00 0.00 0.00 90 1007.7
20260903031531 74 76 0.0 0.0 0.00 0.00 0.00 89 1007.7
20260903030023 75 76 0.0 0.0 0.00 0.00 0.00 88 1007.6
20260903024521 75 76 0.0 0.0 0.00 0.00 0.00 88 1007.6
20260903023026 76 76 0.0 0.0 0.00 0.00 0.00 88 1007.5
20260903021621 76 76 0.0 0.0 0.00 0.00 0.00 87 1007.5
20260903020023 77 76 0.0 0.0 0.00 0.00 0.00 86 1007.3
20260903014523 78 77 0.0 0.0 0.00 0.00 0.00 84 1007.3
20260903013019 79 77 0.0 0.0 0.00 0.00 0.00 82 1007.1
20260903011522 81 77 0.0 0.0 0.00 0.00 0.00 79 1007.0
20260903010019 82 83 0.0 0.0 0.00 0.00 0.00 78 1006.9
20260903004527 82 77 0.0 0.0 0.00 0.00 0.00 76 1006.9
20260903003018 83 77 0.0 0.0 0.00 0.00 0.00 75 1006.8
20260903001516 84 78 0.0 0.0 0.00 0.00 0.00 73 1006.7
20260903000016 84 57 0.0 0.0 0.00 0.00 0.00 71 1006.9
20260902234514 85 70 0.0 0.0 0.00 0.00 0.00 69 1006.8
20260902233019 85 55 0.0 0.0 0.00 0.00 0.00 68 1006.8
20260902231514 85 84 0.0 0.0 0.00 0.00 0.00 66 1006.9
20260902230015 86 76 0.0 0.0 0.00 0.00 0.00 65 1006.9
20260902224512 86 96 0.0 0.0 0.00 0.00 0.00 66 1006.9
20260902223013 86 91 0.0 0.0 0.00 0.00 0.00 62 1006.8
20260902221516 86 70 0.0 0.0 0.00 0.00 0.00 62 1006.8
20260902220009 87 87 0.0 0.0 0.00 0.00 0.00 64 1006.9
20260902214510 87 74 0.0 0.0 0.00 0.00 0.00 62 1007.0
20260902213005 87 78 0.0 0.0 0.00 0.00 0.00 62 1007.0
20260902211609 87 93 0.0 0.0 0.00 0.00 0.00 64 1007.1
20260902210058 87 85 0.0 0.0 0.00 0.00 0.00 62 1007.2
20260902204552 87 79 0.0 0.0 0.00 0.00 0.00 62 1007.2
20260902203050 87 74 0.0 0.0 0.00 0.00 0.00 60 1007.4
20260902201545 87 75 0.0 0.0 0.00 0.00 0.00 60 1007.5
20260902200040 86 55 0.0 0.0 0.00 0.00 0.00 59 1007.6
20260902194536 86 29 0.0 0.0 0.00 0.00 0.00 62 1007.9
20260902193030 86 53 0.0 0.0 0.00 0.00 0.00 61 1008.0
20260902191527 86 46 0.0 0.0 0.00 0.00 0.00 62 1008.1
20260902190027 85 68 0.0 0.0 0.00 0.00 0.00 61 1008.4
20260902184524 85 38 0.0 0.0 0.00 0.00 0.00 59 1008.7
20260902183021 85 78 0.0 0.0 0.00 0.00 0.00 64 1009.2
20260902181518 84 52 0.0 0.0 0.00 0.00 0.00 65 1009.2
20260902180014 84 78 0.0 0.0 0.00 0.00 0.00 66 1009.3
20260902174511 83 69 0.0 0.0 0.00 0.00 0.00 67 1009.4
20260902173010 83 67 0.0 0.0 0.00 0.00 0.00 69 1009.7
20260902171505 82 69 0.0 0.0 0.00 0.00 0.00 69 1009.9
20260902170002 82 99 0.0 0.0 0.00 0.00 0.00 69 1010.1
20260902164603 82 135 0.0 0.0 0.00 0.00 0.00 69 1010.1
20260902163055 82 157 0.0 0.0 0.00 0.00 0.00 70 1010.1
20260902161552 81 140 0.0 0.0 0.00 0.00 0.00 70 1010.3
20260902160051 79 296 0.0 0.0 0.00 0.00 0.00 73 1010.4
20260902154601 79 297 0.0 0.0 0.00 0.00 0.00 73 1010.5
20260902153041 78 296 0.0 0.0 0.00 0.00 0.00 77 1010.5
20260902151537 77 297 0.0 0.0 0.00 0.00 0.00 78 1010.2
20260902150033 77 355 0.0 0.0 0.00 0.00 0.00 80 1010.2
20260902144528 76 18 0.0 0.0 0.00 0.00 0.00 81 1009.9